Change the Weather History Date:

Wednesday, December 14, 2011

  Actual Average Record
Temperature  
Mean Temperature 30 °F -  
Max Temperature 39 °F 40 °F 60 °F (2006)
Min Temperature 21 °F 17 °F -7 °F (2008)
Degree Days  
Heating Degree Days 35    
Moisture  
Dew Point 21 °F    
Average Humidity 71    
Maximum Humidity 100    
Minimum Humidity 41    
Precipitation  
Precipitation 0.00 in - - ()
Sea Level Pressure  
Sea Level Pressure 29.84 in    
Wind  
Wind Speed 4 mph (East)    
Max Wind Speed 9 mph    
Max Gust Speed -    
Visibility 9 miles    
Events      
Averages and records for this station are not official NWS values.
T = Trace of Precipitation, MM = Missing Value Source: NWS Daily Summary

Daily Weather History Graph

Daily Weather History Graph

Search for Another Location

Airport or City:

Trip Planner

Search our weather history database for the weather conditions in past years. The results will help you decide how hot, cold, wet, or windy it might be!

Date:

Astronomy

Dec. 14, 2011 Rise Set
Actual Time 7:15 AM MST 4:34 PM MST
Civil Twilight 6:44 AM MST 5:04 PM MST
Nautical Twilight 6:10 AM MST 5:39 PM MST
Astronomical Twilight 5:37 AM MST 6:12 PM MST
Moon 8:57 PM MST (12/14) 10:00 AM MST (12/14)
Length of Visible Light 10h 20m
Length of Day
9h 18m
Waning Gibbous, 83% of the Moon is Illuminated
Dec 14
Waning Gibbous
Dec 17
Last Quarter
Dec 24
New
Dec 31
First Quarter
Jan 9
Full

Hourly Weather History & Observations

Time (MST) Temp. Windchill Dew Point Humidity Pressure Visibility Wind Dir Wind Speed Gust Speed Precip Events Conditions
12:15 AM 21.2 °F - 19.4 °F 93% 29.81 in 5.0 mi Calm Calm - N/A   Clear
12:35 AM 21.2 °F - 21.2 °F 100% 29.79 in 4.0 mi Calm Calm - N/A   Clear
12:55 AM 21.2 °F - 19.4 °F 93% 29.79 in 1.2 mi Calm Calm - N/A   Clear
1:15 AM 21.2 °F - 19.4 °F 93% 29.79 in 5.0 mi Calm Calm - N/A   Clear
1:35 AM 21.2 °F - 19.4 °F 93% 29.78 in 1.8 mi Calm Calm - N/A   Clear
2:15 AM 21.2 °F 14.9 °F 19.4 °F 93% 29.77 in 5.0 mi NNW 4.6 mph - N/A   Clear
2:35 AM 21.2 °F 12.6 °F 21.2 °F 100% 29.77 in 10.0 mi North 6.9 mph - N/A   Clear
2:55 AM 21.2 °F 11.7 °F 19.4 °F 93% 29.77 in 10.0 mi North 8.1 mph - N/A   Clear
3:15 AM 24.8 °F 16.1 °F 19.4 °F 80% 29.77 in 10.0 mi North 8.1 mph - N/A   Clear
3:35 AM 24.8 °F 15.3 °F 19.4 °F 80% 29.76 in 10.0 mi NNE 9.2 mph - N/A   Clear
3:55 AM 24.8 °F 16.9 °F 19.4 °F 80% 29.76 in 10.0 mi North 6.9 mph - N/A   Partly Cloudy
4:15 AM 21.2 °F - 15.8 °F 80% 29.75 in 10.0 mi Calm Calm - N/A   Mostly Cloudy
4:35 AM 24.8 °F - 17.6 °F 74% 29.75 in 10.0 mi Calm Calm - N/A   Mostly Cloudy
4:55 AM 26.6 °F - 21.2 °F 80% 29.75 in 10.0 mi Calm Calm - N/A   Mostly Cloudy
5:15 AM 26.6 °F 20.0 °F 19.4 °F 74% 29.76 in 10.0 mi South 5.8 mph - N/A   Scattered Clouds
5:55 AM 26.6 °F 21.2 °F 19.4 °F 74% 29.76 in 10.0 mi SSE 4.6 mph - N/A   Partly Cloudy
6:15 AM 26.6 °F 20.0 °F 19.4 °F 74% 29.77 in 10.0 mi South 5.8 mph - N/A   Mostly Cloudy
6:35 AM 26.6 °F 18.2 °F 19.4 °F 74% 29.77 in 10.0 mi SSE 8.1 mph - N/A   Overcast
6:55 AM 24.8 °F 19.1 °F 19.4 °F 80% 29.78 in 10.0 mi SSE 4.6 mph - N/A   Scattered Clouds
7:15 AM 26.6 °F 22.6 °F 19.4 °F 74% 29.78 in 10.0 mi SE 3.5 mph - N/A   Clear
7:35 AM 26.6 °F 20.0 °F 19.4 °F 74% 29.79 in 10.0 mi East 5.8 mph - N/A   Clear
8:15 AM 30.2 °F 24.3 °F 21.2 °F 69% 29.80 in 10.0 mi ESE 5.8 mph - N/A   Clear
8:35 AM 24.8 °F 19.1 °F 17.6 °F 74% 29.81 in 10.0 mi North 4.6 mph - N/A   Partly Cloudy
8:55 AM 24.8 °F - 19.4 °F 80% 29.81 in 10.0 mi Calm Calm - N/A   Partly Cloudy
9:15 AM 24.8 °F 19.1 °F 17.6 °F 74% 29.82 in 10.0 mi North 4.6 mph - N/A   Clear
10:15 AM 30.2 °F 24.3 °F 21.2 °F 69% 29.82 in 10.0 mi SSE 5.8 mph - N/A   Clear
10:35 AM 30.2 °F 24.3 °F 23.0 °F 75% 29.83 in 10.0 mi SSE 5.8 mph - N/A   Clear
10:55 AM 33.8 °F 28.6 °F 24.8 °F 70% 29.82 in 10.0 mi ESE 5.8 mph - N/A   Clear
11:15 AM 37.4 °F - 24.8 °F 60% 29.82 in 10.0 mi Calm Calm - N/A   Clear
11:35 AM 35.6 °F - 26.6 °F 70% 29.82 in 10.0 mi Calm Calm - N/A   Clear
11:55 AM 35.6 °F 32.8 °F 26.6 °F 70% 29.82 in 10.0 mi NE 3.5 mph - N/A   Clear
12:15 PM 37.4 °F 32.1 °F 26.6 °F 65% 29.80 in 10.0 mi South 6.9 mph - N/A   Clear
12:35 PM 39.2 °F 33.6 °F 28.4 °F 65% 29.81 in 10.0 mi SSE 8.1 mph - N/A   Clear
1:15 PM 39.2 °F 34.2 °F 26.6 °F 61% 29.81 in 10.0 mi ESE 6.9 mph - N/A   Clear
1:35 PM 39.2 °F 33.0 °F 26.6 °F 61% 29.82 in 10.0 mi South 9.2 mph - N/A   Clear
2:15 PM 39.2 °F 34.2 °F 26.6 °F 61% 29.83 in 10.0 mi SSE 6.9 mph - N/A   Clear
2:35 PM 39.2 °F 33.6 °F 28.4 °F 65% 29.84 in 10.0 mi SE 8.1 mph - N/A   Clear
2:55 PM 39.2 °F 33.6 °F 26.6 °F 61% 29.84 in 10.0 mi SE 8.1 mph - N/A   Clear
3:15 PM 35.6 °F 29.2 °F 26.6 °F 70% 29.86 in 10.0 mi South 8.1 mph - N/A   Clear
3:55 PM 35.6 °F 28.6 °F 26.6 °F 70% 29.88 in 10.0 mi South 9.2 mph - N/A   Clear
4:35 PM 35.6 °F 30.7 °F 24.8 °F 65% 29.91 in 10.0 mi NNE 5.8 mph - N/A   Clear
4:55 PM 35.6 °F 28.6 °F 24.8 °F 65% 29.92 in 10.0 mi NE 9.2 mph - N/A   Clear
5:15 PM 35.6 °F 28.6 °F 24.8 °F 65% 29.93 in 10.0 mi NE 9.2 mph - N/A   Clear
5:35 PM 35.6 °F 29.2 °F 24.8 °F 65% 29.95 in 10.0 mi NNE 8.1 mph - N/A   Clear
5:55 PM 37.4 °F 34.9 °F 15.8 °F 41% 29.96 in 10.0 mi NNE 3.5 mph - N/A   Scattered Clouds
6:15 PM 37.4 °F 33.8 °F 15.8 °F 41% 29.97 in 10.0 mi North 4.6 mph - N/A   Overcast
6:35 PM 35.6 °F 30.7 °F 17.6 °F 48% 29.98 in 10.0 mi North 5.8 mph - N/A   Overcast
6:55 PM 35.6 °F 32.8 °F 17.6 °F 48% 29.99 in 10.0 mi NNW 3.5 mph - N/A   Overcast
7:15 PM 37.4 °F 34.9 °F 17.6 °F 45% 30.00 in 10.0 mi North 3.5 mph - N/A   Overcast
7:35 PM 37.4 °F 34.9 °F 19.4 °F 48% 30.01 in 10.0 mi NNE 3.5 mph - N/A   Overcast
7:55 PM 33.8 °F 30.8 °F 21.2 °F 60% 30.02 in 10.0 mi WSW 3.5 mph - N/A   Overcast
8:15 PM 35.6 °F - 19.4 °F 52% 30.03 in 10.0 mi Calm Calm - N/A   Overcast
8:35 PM 33.8 °F 27.7 °F 19.4 °F 56% 30.04 in 10.0 mi SW 6.9 mph - N/A   Overcast
8:55 PM 33.8 °F 28.6 °F 21.2 °F 60% 30.04 in 10.0 mi South 5.8 mph - N/A   Overcast
9:15 PM 33.8 °F - 21.2 °F 60% 30.05 in 10.0 mi Calm Calm - N/A   Overcast
9:35 PM 33.8 °F - 21.2 °F 60% 30.06 in 10.0 mi Calm Calm - N/A   Overcast
9:55 PM 33.8 °F 27.7 °F 21.2 °F 60% 30.07 in 10.0 mi SSE 6.9 mph - N/A   Overcast
10:36 PM 30.2 °F 22.6 °F 21.2 °F 69% 30.09 in 10.0 mi South 8.1 mph - N/A   Overcast
10:55 PM 30.2 °F 25.4 °F 21.2 °F 69% 30.10 in 10.0 mi SE 4.6 mph - N/A   Overcast
11:15 PM 30.2 °F 21.9 °F 21.2 °F 69% 30.10 in 10.0 mi SE 9.2 mph - N/A   Overcast
11:35 PM 30.2 °F 24.3 °F 21.2 °F 69% 30.11 in 10.0 mi SSE 5.8 mph - N/A   Overcast
11:55 PM 30.2 °F 23.4 °F 21.2 °F 69% 30.11 in 10.0 mi SE 6.9 mph - N/A   Overcast